Location: Melbourne
(37.8666°S, 145.1333°E)
Time: 18:24:52
(UTC+10:00)

Amateur Radio Satellites - All Passes

Search period start: 02 October 2014 17:54
Search period end: 03 October 2014 17:54
Location: Melbourne, 37.8666°S, 145.1333°E

Satellite Date Start Highest point End Downlink Frequencies (MHz)
Time Altitude Azimuth
RS-15 02 Oct 17:56:19 18:04:19 19° 193° (SSW) 18:12:17 29.354 - 29.394 USB, Beacon 29.352 USB
OPAL 02 Oct 17:59:30 18:00:17 10° 272° (W) 18:01:05 ?
JAS-2 02 Oct 18:22:06 18:28:21 77° 254° (WSW) 18:33:50 435.800 - 435.900 CW/SSB, 435.910 FM
AO-7 02 Oct 18:44:22 18:50:24 23° 235° (SW) 18:56:24 29.400 - 29.500 MHz
SO-67 02 Oct 18:46:24 18:49:15 23° 85° (E) 18:52:04 435.3500 MHz FM
Hamsat 02 Oct 18:50:04 18:54:07 36° 252° (WSW) 18:58:07 145.90 MHz
UOSAT-12 02 Oct 18:50:38 18:53:12 15° 289° (WNW) 18:55:46 437.025 FM, 437.400 FM
STRAND 1 02 Oct 18:58:15 19:03:07 41° 279° (W) 19:08:02 ?
AO-40 02 Oct 19:37:13 00:34:30 38° 34° (NE) 02:44:32 Beacon 2401.320
Sapphire 02 Oct 19:58:56 20:03:24 27° 73° (ENE) 20:07:53 437.095 MHz 1200 baud AX-25 AFSK
HO-68 02 Oct 20:05:02 20:09:53 19° 88° (E) 20:14:41 435.675 MHz FM
JAS-2 02 Oct 20:10:57 20:12:06 11° 234° (SW) 20:13:13 435.800 - 435.900 CW/SSB, 435.910 FM
RS-15 02 Oct 20:14:14 20:23:23 23° 156° (SSE) 20:32:15 29.354 - 29.394 USB, Beacon 29.352 USB
SO-67 02 Oct 20:19:38 20:22:05 18° 250° (WSW) 20:24:31 435.3500 MHz FM
PCSat 02 Oct 20:23:30 20:28:42 49° 68° (ENE) 20:33:55 145.825 MHz
Oscar 10/S400 02 Oct 20:27:44 04:30:35 69° 42° (NE) 06:33:12 145.825 - 145.975 CW/USB, Beacon 145.810 USB
Oscar 11 02 Oct 21:11:54 21:15:09 20° 86° (E) 21:18:22 145.825 FM, Beacon 2401.500 USB
FUNcube-1 02 Oct 21:39:35 21:42:12 16° 87° (E) 21:44:51 145.950 - 145.970 MHz USB
Sapphire 02 Oct 21:41:32 21:46:36 39° 236° (SW) 21:51:42 437.095 MHz 1200 baud AX-25 AFSK
UKube-1 02 Oct 21:41:43 21:46:03 53° 79° (E) 21:50:18 145.840 MHz, 145.915 MHz
HO-68 02 Oct 21:50:58 21:58:10 72° 251° (WSW) 22:05:16 435.675 MHz FM
PCSat 02 Oct 22:08:03 22:12:21 24° 230° (SW) 22:16:42 145.825 MHz
ZACube-1 02 Oct 22:23:44 22:27:58 51° 80° (E) 22:32:13 437.345 MHz
RS-15 02 Oct 22:27:00 22:39:04 63° 126° (SE) 22:50:27 29.354 - 29.394 USB, Beacon 29.352 USB
Oscar 11 02 Oct 22:47:24 22:51:22 33° 251° (WSW) 22:55:18 145.825 FM, Beacon 2401.500 USB
FUNcube-1 02 Oct 23:14:41 23:18:44 40° 253° (WSW) 23:22:50 145.950 - 145.970 MHz USB
UKube-1 02 Oct 23:19:36 23:21:44 14° 244° (WSW) 23:23:53 145.840 MHz, 145.915 MHz
Oscar 16 02 Oct 23:36:53 23:38:52 12° 119° (ESE) 23:40:51 437.025 USB, Beacon 2401.1428
HO-68 02 Oct 23:41:36 23:44:36 13° 233° (SW) 23:47:35 435.675 MHz FM
JAS-1B 02 Oct 23:52:52 23:58:48 23° 125° (SE) 00:05:22 435.800 - 435.900 CW/SSB
ZACube-1 03 Oct 00:01:50 00:03:56 13° 245° (WSW) 00:06:02 437.345 MHz
Saudisat 1A 03 Oct 00:06:55 00:09:19 15° 71° (ENE) 00:11:44 436.775 MHz
Oscar 19 03 Oct 00:31:28 00:36:14 40° 110° (ESE) 00:41:03 437.125 CW, 437.150 USB
RS-15 03 Oct 00:40:25 00:50:46 37° 285° (WNW) 01:00:43 29.354 - 29.394 USB, Beacon 29.352 USB
ITAMSAT 1 03 Oct 00:46:59 00:51:08 24° 114° (ESE) 00:55:18 435.822 SSB
Uribyol 2 03 Oct 00:47:24 00:51:39 26° 113° (ESE) 00:55:55 436.500 FM
AO-Echo 03 Oct 01:11:30 01:16:39 50° 108° (ESE) 01:21:49 ?
Oscar 16 03 Oct 01:12:20 01:17:29 80° 283° (WNW) 01:22:42 437.025 USB, Beacon 2401.1428
AO-27 03 Oct 01:24:36 01:29:43 56° 108° (ESE) 01:34:53 436.795 MHz FM
JAS-1B 03 Oct 01:40:22 01:47:59 82° 284° (WNW) 01:57:13 435.800 - 435.900 CW/SSB
Saudisat 1A 03 Oct 01:44:07 01:48:26 52° 236° (SW) 01:52:47 436.775 MHz
Gurwin Techsat 1B 03 Oct 01:56:45 02:01:55 53° 108° (ESE) 02:07:09 435.225 FM
AO-7 03 Oct 01:57:42 02:03:21 20° 127° (SE) 02:09:00 29.400 - 29.500 MHz
Oscar 19 03 Oct 02:11:43 02:15:40 22° 274° (W) 02:19:41 437.125 CW, 437.150 USB
TMSAT-1 03 Oct 02:24:23 02:29:40 71° 106° (ESE) 02:35:02 436.925 FM
ITAMSAT 1 03 Oct 02:25:29 02:30:22 39° 278° (W) 02:35:18 435.822 SSB
Uribyol 2 03 Oct 02:26:08 02:30:55 36° 278° (W) 02:35:45 436.500 FM
Uosat F 03 Oct 02:36:39 02:39:29 15° 118° (ESE) 02:42:19 435.120 FM
MaSat-1 03 Oct 02:42:31 02:46:36 81° 293° (WNW) 02:51:09 437.345 MHz
AO-Echo 03 Oct 02:51:52 02:55:37 19° 273° (W) 02:59:24 ?
AO-27 03 Oct 03:06:19 03:09:33 16° 272° (W) 03:12:49 436.795 MHz FM
KITSAT 1 03 Oct 03:34:43 03:42:02 40° 72° (ENE) 03:49:25 435.175 FM
JAS-1B 03 Oct 03:36:12 03:40:08 14° 263° (W) 03:44:22 435.800 - 435.900 CW/SSB
Gurwin Techsat 1B 03 Oct 03:38:41 03:42:11 18° 272° (W) 03:45:43 435.225 FM
AO-7 03 Oct 03:46:38 03:55:01 89° 288° (WNW) 04:03:30 29.400 - 29.500 MHz
TMSAT-1 03 Oct 04:07:47 04:10:05 13° 270° (W) 04:12:24 436.925 FM
Hamsat 03 Oct 04:08:45 04:09:52 11° 116° (ESE) 04:11:00 145.90 MHz
Uosat F 03 Oct 04:12:40 04:17:41 63° 282° (WNW) 04:22:47 435.120 FM
OPAL 03 Oct 04:28:10 04:32:16 24° 83° (E) 04:36:22 ?
JAS-2 03 Oct 04:29:43 04:37:02 44° 111° (ESE) 04:44:05 435.800 - 435.900 CW/SSB, 435.910 FM
Sapphire 03 Oct 04:48:44 04:52:18 17° 133° (SE) 04:55:51 437.095 MHz 1200 baud AX-25 AFSK
PCSat 03 Oct 05:13:27 05:18:07 28° 127° (SE) 05:22:46 145.825 MHz
SO-50 03 Oct 05:20:43 05:23:57 18° 70° (ENE) 05:27:10 436.795 FM
KITSAT 1 03 Oct 05:29:37 05:37:18 46° 233° (SW) 05:45:03 435.175 FM
Hamsat 03 Oct 05:41:03 05:45:14 62° 280° (W) 05:49:31 145.90 MHz
AO-7 03 Oct 05:43:59 05:48:45 16° 271° (W) 05:53:34 29.400 - 29.500 MHz
OPAL 03 Oct 06:06:27 06:11:13 39° 248° (WSW) 06:15:59 ?
JAS-2 03 Oct 06:14:43 06:21:56 39° 276° (W) 06:29:01 435.800 - 435.900 CW/SSB, 435.910 FM
Sapphire 03 Oct 06:30:52 06:36:17 72° 295° (WNW) 06:41:40 437.095 MHz 1200 baud AX-25 AFSK
HO-68 03 Oct 06:34:31 06:37:33 13° 127° (SE) 06:40:36 435.675 MHz FM
SO-67 03 Oct 06:49:23 06:52:51 72° 281° (W) 06:56:24 435.3500 MHz FM
PANSAT 03 Oct 06:50:35 06:53:04 16° 11° (N) 06:55:33 not established
PCSat 03 Oct 06:56:35 07:01:36 39° 290° (WNW) 07:06:35 145.825 MHz
SO-50 03 Oct 06:59:27 07:04:08 50° 235° (SW) 07:08:47 436.795 FM
STRAND 1 03 Oct 07:10:22 07:15:34 78° 77° (ENE) 07:20:40 ?
UOSAT-12 03 Oct 07:19:40 07:23:07 22° 69° (ENE) 07:26:33 437.025 FM, 437.400 FM
KITSAT 1 03 Oct 07:31:53 07:35:08 13° 208° (SSW) 07:38:23 435.175 FM
Oscar 11 03 Oct 08:06:32 08:08:38 13° 115° (ESE) 08:10:44 145.825 FM, Beacon 2401.500 USB
HO-68 03 Oct 08:16:50 08:23:59 72° 109° (ESE) 08:31:13 435.675 MHz FM
PANSAT 03 Oct 08:29:45 08:32:39 20° 358° (N) 08:35:33 not established
UKube-1 03 Oct 08:35:25 08:39:28 37° 109° (ESE) 08:43:33 145.840 MHz, 145.915 MHz
FUNcube-1 03 Oct 08:36:37 08:37:25 11° 116° (ESE) 08:38:13 145.950 - 145.970 MHz USB
STRAND 1 03 Oct 08:51:58 08:54:02 12° 241° (WSW) 08:56:05 ?
UOSAT-12 03 Oct 08:58:54 09:03:01 35° 233° (SW) 09:07:07 437.025 FM, 437.400 FM
ISS 03 Oct 09:08:59 09:12:21 77° 218° (SW) 09:15:45 145.800 FM
ZACube-1 03 Oct 09:18:51 09:22:39 32° 109° (ESE) 09:26:26 437.345 MHz
Oscar 11 03 Oct 09:40:06 09:44:19 52° 280° (W) 09:48:37 145.825 FM, Beacon 2401.500 USB
HO-68 03 Oct 10:07:24 10:12:15 19° 272° (W) 10:17:10 435.675 MHz FM
FUNcube-1 03 Oct 10:09:02 10:13:15 63° 281° (W) 10:17:28 145.950 - 145.970 MHz USB
PANSAT 03 Oct 10:10:15 10:12:12 13° 345° (NNW) 10:14:09 not established
Saudisat 1A 03 Oct 10:12:20 10:16:47 72° 122° (ESE) 10:21:11 436.775 MHz
UKube-1 03 Oct 10:12:46 10:15:46 18° 274° (W) 10:18:47 145.840 MHz, 145.915 MHz
ISS 03 Oct 10:47:30 10:49:32 15° 201° (SSW) 10:51:33 145.800 FM
ZACube-1 03 Oct 10:56:06 10:59:06 19° 274° (W) 11:02:06 437.345 MHz
KITSAT 1 03 Oct 11:30:09 11:35:17 18° 145° (SE) 11:40:24 435.175 FM
Oscar 19 03 Oct 12:45:59 12:49:15 16° 88° (E) 12:52:28 437.125 CW, 437.150 USB
RS-15 03 Oct 12:47:04 12:58:16 48° 72° (ENE) 13:09:44 29.354 - 29.394 USB, Beacon 29.352 USB
AO-Echo 03 Oct 13:22:12 13:25:27 17° 88° (E) 13:28:38 ?
KITSAT 1 03 Oct 13:24:13 13:32:21 68° 122° (ESE) 13:40:24 435.175 FM
Oscar 16 03 Oct 13:26:03 13:31:02 42° 81° (E) 13:35:57 437.025 USB, Beacon 2401.1428
JAS-1B 03 Oct 13:28:16 13:37:33 43° 85° (E) 13:45:55 435.800 - 435.900 CW/SSB
AO-27 03 Oct 13:40:17 13:44:23 23° 85° (E) 13:48:27 436.795 MHz FM
SO-50 03 Oct 13:54:30 13:56:16 12° 139° (SE) 13:58:01 436.795 FM
ISS 03 Oct 14:03:36 14:05:26 14° 160° (SSE) 14:07:15 145.800 FM
Gurwin Techsat 1B 03 Oct 14:15:27 14:19:48 25° 85° (E) 14:24:06 435.225 FM
Oscar 19 03 Oct 14:23:46 14:28:53 55° 253° (WSW) 14:33:58 437.125 CW, 437.150 USB
ITAMSAT 1 03 Oct 14:39:49 14:45:05 86° 76° (ENE) 14:50:17 435.822 SSB
Uribyol 2 03 Oct 14:40:11 14:45:27 88° 256° (WSW) 14:50:38 436.500 FM
TMSAT-1 03 Oct 14:42:31 14:47:19 33° 83° (E) 14:52:03 436.925 FM
RS-15 03 Oct 14:58:52 15:10:38 53° 230° (SW) 15:22:40 29.354 - 29.394 USB, Beacon 29.352 USB
AO-Echo 03 Oct 14:59:41 15:04:30 46° 252° (WSW) 15:09:06 ?
Oscar 16 03 Oct 15:06:05 15:10:04 22° 246° (WSW) 15:14:02 437.025 USB, Beacon 2401.1428
JAS-1B 03 Oct 15:18:34 15:27:58 49° 246° (WSW) 15:36:35 435.800 - 435.900 CW/SSB
AO-27 03 Oct 15:19:08 15:24:00 40° 250° (WSW) 15:28:48 436.795 MHz FM
KITSAT 1 03 Oct 15:20:49 15:27:02 25° 284° (WNW) 15:33:14 435.175 FM
SO-50 03 Oct 15:32:58 15:37:30 90° 297° (WNW) 15:41:56 436.795 FM
ISS 03 Oct 15:39:17 15:42:41 64° 142° (SE) 15:46:02 145.800 FM
OPAL 03 Oct 15:41:22 15:45:49 34° 113° (ESE) 15:50:20 ?
AO-7 03 Oct 15:50:55 15:58:26 35° 82° (E) 16:05:50 29.400 - 29.500 MHz
UOSAT-12 03 Oct 15:51:00 15:53:25 14° 136° (SE) 15:55:50 437.025 FM, 437.400 FM
Gurwin Techsat 1B 03 Oct 15:54:53 15:59:50 38° 250° (WSW) 16:04:43 435.225 FM
ITAMSAT 1 03 Oct 16:22:10 16:23:47 11° 240° (WSW) 16:25:23 435.822 SSB
Uosat F 03 Oct 16:22:21 16:27:14 46° 80° (E) 16:32:03 435.120 FM
TMSAT-1 03 Oct 16:22:32 16:27:06 29° 248° (WSW) 16:31:37 436.925 FM
Uribyol 2 03 Oct 16:23:08 16:24:05 11° 239° (WSW) 16:25:02 436.500 FM
MaSat-1 03 Oct 16:26:33 16:28:49 35° 70° (ENE) 16:31:16 437.345 MHz
STRAND 1 03 Oct 16:49:44 16:51:10 11° 120° (ESE) 16:52:36 ?
JAS-1B 03 Oct 17:13:19 17:15:54 11° 225° (SW) 17:18:28 435.800 - 435.900 CW/SSB
ISS 03 Oct 17:17:37 17:18:58 12° 307° (NW) 17:20:19 145.800 FM
RS-15 03 Oct 17:18:24 17:27:02 21° 200° (SSW) 17:35:39 29.354 - 29.394 USB, Beacon 29.352 USB
OPAL 03 Oct 17:20:40 17:24:43 25° 277° (W) 17:28:49 ?
JAS-2 03 Oct 17:27:35 17:33:08 36° 85° (E) 17:38:07 435.800 - 435.900 CW/SSB, 435.910 FM
Hamsat 03 Oct 17:28:53 17:32:38 26° 85° (E) 17:36:21 145.90 MHz
UOSAT-12 03 Oct 17:29:35 17:34:00 70° 299° (WNW) 17:38:25 437.025 FM, 437.400 FM
